BAW28 EGLL-FIMP

Flight info

Callsign BAW28
Flight time N/A
Altitude 33000
Route DET L6 DVR L9 KONAN UL607 REMBA M624 DIK N852 SUTAL DCT GTQ DCT BEGAR DCT ELMUR DCT RESIA DCT LATAN DCT SALUN N705 MMA L613 KIVIL N710 TAKRI P751 LXR M999 JDW G650 ULONI UV790 SB DCT DEKRA DCT DTI UR775 MOGDU UN304 MAEVA UL433 APKOT DCT TIBAG TIBAG2E
Aircraft A35K/H-SDE2E3GHIJ3J4J5LM1ORWXY/LB1D1

Departure

Time N/A
Airport London Heathrow Airport (EGLL)

Arrival

Time 2026-05-05 16:52
Airport Sir Seewoosagur Ramgoolam International Airport (FIMP)
Time Latitude Longitude Altitude Speed Heading
2026-05-05 15:01 -10.35044 50.62423 32940 ft 509 kts 158°
2026-05-05 15:01 -10.41537 50.65287 32941 ft 509 kts 158°
2026-05-05 15:02 -10.48033 50.68154 32941 ft 510 kts 158°
2026-05-05 15:02 -10.54542 50.71025 32945 ft 510 kts 158°
2026-05-05 15:03 -10.61041 50.73896 32944 ft 509 kts 158°
2026-05-05 15:03 -10.67545 50.76769 32947 ft 509 kts 159°
2026-05-05 15:04 -10.74046 50.79641 32945 ft 509 kts 158°
2026-05-05 15:04 -10.80543 50.82513 32946 ft 509 kts 159°
2026-05-05 15:05 -10.90303 50.86833 32951 ft 511 kts 158°
2026-05-05 15:06 -10.96818 50.89715 32950 ft 511 kts 158°
2026-05-05 15:06 -11.03336 50.92603 32953 ft 511 kts 158°
2026-05-05 15:07 -11.09857 50.95493 32950 ft 511 kts 159°
2026-05-05 15:07 -11.16376 50.98383 32950 ft 512 kts 158°
2026-05-05 15:08 -11.22909 51.01280 32951 ft 512 kts 158°
2026-05-05 15:08 -11.29443 51.04181 32955 ft 513 kts 159°
2026-05-05 15:09 -11.35936 51.07062 32955 ft 513 kts 158°
2026-05-05 15:09 -11.42469 51.09964 32955 ft 512 kts 159°
2026-05-05 15:10 -11.49006 51.12871 32957 ft 513 kts 159°
2026-05-05 15:10 -11.55547 51.15778 32960 ft 513 kts 159°
2026-05-05 15:11 -11.62078 51.18683 32963 ft 512 kts 159°
2026-05-05 15:11 -11.68611 51.21593 32963 ft 512 kts 159°
2026-05-05 15:12 -11.75151 51.24505 32961 ft 513 kts 159°
2026-05-05 15:12 -11.81688 51.27417 32960 ft 512 kts 158°
2026-05-05 15:13 -11.88219 51.30331 32960 ft 513 kts 159°
2026-05-05 15:13 -11.94759 51.33247 32963 ft 513 kts 159°
2026-05-05 15:14 -12.01300 51.36164 32966 ft 513 kts 158°
2026-05-05 15:14 -12.07843 51.39088 32965 ft 513 kts 159°
2026-05-05 15:15 -12.14393 51.42014 32969 ft 514 kts 159°
2026-05-05 15:15 -12.20940 51.44941 32969 ft 513 kts 158°
2026-05-05 15:16 -12.27486 51.47870 32972 ft 514 kts 159°
2026-05-05 15:16 -12.34035 51.50801 32971 ft 514 kts 159°
2026-05-05 15:17 -12.40539 51.53713 32971 ft 514 kts 159°
2026-05-05 15:17 -12.47087 51.56649 32971 ft 514 kts 159°
2026-05-05 15:18 -12.53643 51.59587 32972 ft 514 kts 159°
2026-05-05 15:18 -12.60202 51.62528 32971 ft 514 kts 158°
2026-05-05 15:19 -12.66750 51.65469 32976 ft 514 kts 159°
2026-05-05 15:19 -12.73311 51.68415 32980 ft 515 kts 159°
2026-05-05 15:20 -12.79868 51.71361 32979 ft 515 kts 158°
2026-05-05 15:20 -12.86426 51.74310 32982 ft 515 kts 159°
2026-05-05 15:21 -12.91875 51.76761 32980 ft 515 kts 159°
2026-05-05 15:21 -12.98435 51.79713 32985 ft 514 kts 158°
2026-05-05 15:22 -13.04990 51.82666 32981 ft 515 kts 159°
2026-05-05 15:22 -13.11549 51.85621 32982 ft 515 kts 158°
2026-05-05 15:23 -13.18102 51.88576 32982 ft 515 kts 158°
2026-05-05 15:23 -13.24661 51.91535 32985 ft 515 kts 159°
2026-05-05 15:24 -13.31217 51.94494 32987 ft 515 kts 158°
2026-05-05 15:24 -13.37767 51.97453 32987 ft 514 kts 158°
2026-05-05 15:25 -13.44313 52.00412 32985 ft 514 kts 158°
2026-05-05 15:25 -13.50856 52.03371 32988 ft 514 kts 158°
2026-05-05 15:26 -13.57404 52.06332 32990 ft 514 kts 158°
2026-05-05 15:26 -13.63953 52.09297 32993 ft 514 kts 158°
2026-05-05 15:27 -13.70501 52.12263 32994 ft 514 kts 158°
2026-05-05 15:27 -13.77047 52.15230 32993 ft 514 kts 158°
2026-05-05 15:28 -13.83548 52.18179 32992 ft 514 kts 158°
2026-05-05 15:28 -13.90095 52.21151 32996 ft 514 kts 158°
2026-05-05 15:29 -13.96639 52.24122 32994 ft 514 kts 158°
2026-05-05 15:29 -14.03228 52.27117 32999 ft 514 kts 158°
2026-05-05 15:30 -14.09731 52.30073 32998 ft 514 kts 159°
2026-05-05 15:30 -14.16280 52.33053 33002 ft 515 kts 159°
2026-05-05 15:31 -14.22838 52.36038 33002 ft 515 kts 158°
2026-05-05 15:31 -14.29385 52.39021 32998 ft 515 kts 158°
2026-05-05 15:32 -14.35934 52.42007 33003 ft 515 kts 158°
2026-05-05 15:32 -14.42483 52.44994 33000 ft 515 kts 158°
2026-05-05 15:33 -14.49027 52.47981 33002 ft 514 kts 158°
2026-05-05 15:33 -14.55576 52.50972 33001 ft 514 kts 158°
2026-05-05 15:34 -14.62119 52.53963 33008 ft 515 kts 158°
2026-05-05 15:34 -14.68669 52.56958 33005 ft 515 kts 159°
2026-05-05 15:35 -14.75221 52.59957 33007 ft 515 kts 158°
2026-05-05 15:35 -14.81770 52.62956 33009 ft 515 kts 158°
2026-05-05 15:36 -14.88316 52.65956 33009 ft 514 kts 158°
2026-05-05 15:36 -14.94856 52.68954 33009 ft 514 kts 158°
2026-05-05 15:37 -15.01390 52.71953 33010 ft 514 kts 158°
2026-05-05 15:37 -15.07927 52.74954 33012 ft 514 kts 158°
2026-05-05 15:38 -15.14461 52.77957 33013 ft 514 kts 158°
2026-05-05 15:38 -15.20999 52.80963 33013 ft 514 kts 158°
2026-05-05 15:39 -15.27493 52.83951 33013 ft 514 kts 158°
2026-05-05 15:39 -15.34027 52.86959 33015 ft 514 kts 158°
2026-05-05 15:40 -15.40561 52.89969 33013 ft 514 kts 158°
2026-05-05 15:40 -15.47094 52.92981 33022 ft 514 kts 159°
2026-05-05 15:41 -15.53624 52.95994 33017 ft 513 kts 159°
2026-05-05 15:41 -15.60149 52.99007 33018 ft 513 kts 159°
2026-05-05 15:42 -15.66678 53.02023 33018 ft 514 kts 158°
2026-05-05 15:42 -15.73208 53.05042 33021 ft 514 kts 158°
2026-05-05 15:43 -15.79746 53.08067 33022 ft 514 kts 159°
2026-05-05 15:43 -15.86280 53.11092 33020 ft 514 kts 159°
2026-05-05 15:44 -15.92811 53.14118 33020 ft 514 kts 159°
2026-05-05 15:44 -15.99339 53.17145 33025 ft 514 kts 159°
2026-05-05 15:45 -16.05868 53.20174 33026 ft 514 kts 159°
2026-05-05 15:45 -16.12398 53.23207 33026 ft 514 kts 159°
2026-05-05 15:46 -16.18923 53.26239 33027 ft 514 kts 159°
2026-05-05 15:46 -16.25453 53.29275 33026 ft 515 kts 159°
2026-05-05 15:47 -16.31998 53.32320 33027 ft 515 kts 159°
2026-05-05 15:47 -16.38439 53.35599 33026 ft 518 kts 150°
2026-05-05 15:48 -16.44024 53.40382 33029 ft 522 kts 139°
2026-05-05 15:48 -16.49215 53.45691 33029 ft 523 kts 137°
2026-05-05 15:49 -16.54345 53.51075 33028 ft 523 kts 137°
2026-05-05 15:49 -16.59452 53.56411 33027 ft 523 kts 137°
2026-05-05 15:50 -16.64608 53.61768 33028 ft 523 kts 137°
2026-05-05 15:50 -16.69764 53.67118 33027 ft 523 kts 137°
2026-05-05 15:51 -16.74925 53.72477 33024 ft 523 kts 137°
2026-05-05 15:51 -16.80082 53.77839 33026 ft 523 kts 137°
2026-05-05 15:52 -16.85239 53.83205 33042 ft 524 kts 137°
2026-05-05 15:52 -16.90398 53.88577 33027 ft 523 kts 137°
2026-05-05 15:53 -16.95549 53.93945 33025 ft 523 kts 137°
2026-05-05 15:53 -17.00703 53.99321 33039 ft 523 kts 137°
2026-05-05 15:54 -17.05860 54.04704 33045 ft 524 kts 137°
2026-05-05 15:54 -17.11017 54.10092 33038 ft 524 kts 137°
2026-05-05 15:55 -17.16177 54.15489 33034 ft 525 kts 137°
2026-05-05 15:55 -17.21332 54.20884 33039 ft 524 kts 137°
2026-05-05 15:56 -17.26485 54.26282 33040 ft 524 kts 137°
2026-05-05 15:56 -17.31609 54.31653 33040 ft 525 kts 137°
2026-05-05 15:57 -17.36768 54.37065 33039 ft 525 kts 137°
2026-05-05 15:57 -17.41922 54.42477 33039 ft 525 kts 137°
2026-05-05 15:58 -17.47076 54.47894 33051 ft 525 kts 137°
2026-05-05 15:58 -17.52228 54.53314 33042 ft 525 kts 137°
2026-05-05 15:59 -17.57384 54.58741 33044 ft 525 kts 137°
2026-05-05 15:59 -17.62537 54.64171 33042 ft 525 kts 137°
2026-05-05 16:00 -17.67687 54.69601 33043 ft 525 kts 137°
2026-05-05 16:00 -17.72835 54.75036 33044 ft 525 kts 137°
2026-05-05 16:01 -17.77987 54.80477 33045 ft 526 kts 137°
2026-05-05 16:01 -17.83141 54.85927 33044 ft 526 kts 137°
2026-05-05 16:02 -17.88290 54.91375 33044 ft 526 kts 137°
2026-05-05 16:02 -17.93441 54.96831 33046 ft 526 kts 137°
2026-05-05 16:03 -17.98554 55.02251 33044 ft 526 kts 137°
2026-05-05 16:03 -18.03701 55.07712 33046 ft 526 kts 137°
2026-05-05 16:04 -18.08851 55.13181 33048 ft 526 kts 137°
2026-05-05 16:04 -18.14001 55.18655 33049 ft 526 kts 137°
2026-05-05 16:05 -18.19148 55.24131 33067 ft 526 kts 137°
2026-05-05 16:05 -18.24294 55.29611 33051 ft 527 kts 137°
2026-05-05 16:06 -18.29451 55.35105 33048 ft 528 kts 137°
2026-05-05 16:06 -18.34605 55.40604 33048 ft 528 kts 137°
2026-05-05 16:07 -18.39757 55.46108 33048 ft 528 kts 137°
2026-05-05 16:07 -18.44904 55.51611 33048 ft 527 kts 137°
2026-05-05 16:08 -18.50023 55.57067 33048 ft 510 kts 138°
2026-05-05 16:08 -18.52554 55.59584 33051 ft 492 kts 140°
2026-05-05 16:08 -18.55018 55.61991 33050 ft 475 kts 140°
2026-05-05 16:08 -18.57398 55.64327 32893 ft 460 kts 140°
2026-05-05 16:09 -18.58925 55.65831 32668 ft 447 kts 140°
2026-05-05 16:09 -18.61146 55.68027 32303 ft 428 kts 140°
2026-05-05 16:09 -18.63279 55.70139 31836 ft 414 kts 140°
2026-05-05 16:09 -18.65349 55.72191 31303 ft 403 kts 140°
2026-05-05 16:10 -18.67369 55.74194 30767 ft 393 kts 140°
2026-05-05 16:10 -18.69331 55.76143 30396 ft 384 kts 140°
2026-05-05 16:10 -18.71275 55.78071 30197 ft 383 kts 140°
2026-05-05 16:10 -18.73214 55.79996 30074 ft 382 kts 140°
2026-05-05 16:11 -18.75149 55.81919 29587 ft 381 kts 140°
2026-05-05 16:11 -18.80710 55.87456 27887 ft 355 kts 139°
2026-05-05 16:12 -18.82487 55.89227 27314 ft 348 kts 139°
2026-05-05 16:12 -18.85932 55.92660 26223 ft 333 kts 139°
2026-05-05 16:13 -18.90838 55.97552 24652 ft 313 kts 140°
2026-05-05 16:13 -18.92403 55.99113 24215 ft 305 kts 139°
2026-05-05 16:13 -18.93932 56.00638 23703 ft 301 kts 138°
2026-05-05 16:14 -18.96910 56.03611 22583 ft 288 kts 139°
2026-05-05 16:14 -18.99771 56.06469 21363 ft 282 kts 138°
2026-05-05 16:15 -19.02589 56.09285 20243 ft 275 kts 138°
2026-05-05 16:15 -19.05349 56.12044 19125 ft 272 kts 137°
2026-05-05 16:16 -19.08070 56.14766 18066 ft 266 kts 137°
2026-05-05 16:16 -19.10746 56.17443 16919 ft 262 kts 137°
2026-05-05 16:17 -19.13352 56.20053 15904 ft 254 kts 137°
2026-05-05 16:17 -19.14628 56.21330 15368 ft 251 kts 136°
2026-05-05 16:18 -19.17159 56.23866 14310 ft 250 kts 136°
2026-05-05 16:18 -19.18416 56.25126 13842 ft 247 kts 136°
2026-05-05 16:18 -19.20880 56.27597 12809 ft 241 kts 135°
2026-05-05 16:19 -19.22082 56.28803 12346 ft 235 kts 135°
2026-05-05 16:19 -19.23266 56.29992 11824 ft 235 kts 135°
2026-05-05 16:19 -19.25621 56.32352 10933 ft 229 kts 134°
2026-05-05 16:20 -19.27892 56.34633 10404 ft 223 kts 135°
2026-05-05 16:20 -19.30166 56.36919 9960 ft 226 kts 135°
2026-05-05 16:21 -19.32408 56.39168 9694 ft 222 kts 134°
2026-05-05 16:22 -19.35733 56.42510 9481 ft 219 kts 134°
2026-05-05 16:22 -19.37929 56.44720 9356 ft 218 kts 134°
2026-05-05 16:23 -19.40144 56.46949 8953 ft 220 kts 134°
2026-05-05 16:23 -19.41254 56.48064 8741 ft 219 kts 133°
2026-05-05 16:23 -19.43449 56.50274 8436 ft 218 kts 133°
2026-05-05 16:24 -19.44546 56.51378 8261 ft 217 kts 133°
2026-05-05 16:24 -19.45638 56.52480 8070 ft 218 kts 134°
2026-05-05 16:24 -19.47832 56.54690 7593 ft 217 kts 134°
2026-05-05 16:25 -19.48926 56.55793 7358 ft 217 kts 133°
2026-05-05 16:25 -19.51100 56.57981 6908 ft 214 kts 133°
2026-05-05 16:25 -19.52177 56.59068 6713 ft 213 kts 132°
2026-05-05 16:26 -19.54307 56.61216 6389 ft 210 kts 132°
2026-05-05 16:26 -19.56423 56.63354 6076 ft 210 kts 133°
2026-05-05 16:27 -19.57482 56.64421 6066 ft 210 kts 132°
2026-05-05 16:27 -19.58535 56.65483 6065 ft 209 kts 131°
2026-05-05 16:27 -19.59585 56.66545 6066 ft 209 kts 132°
2026-05-05 16:27 -19.60638 56.67611 6066 ft 210 kts 133°
2026-05-05 16:28 -19.61697 56.68679 6067 ft 210 kts 132°
2026-05-05 16:28 -19.62753 56.69745 6065 ft 209 kts 132°
2026-05-05 16:28 -19.63809 56.70812 6066 ft 210 kts 132°
2026-05-05 16:28 -19.64865 56.71882 6066 ft 210 kts 133°
2026-05-05 16:29 -19.65922 56.72949 6069 ft 209 kts 133°
2026-05-05 16:29 -19.66977 56.74014 6069 ft 209 kts 132°
2026-05-05 16:29 -19.68026 56.75074 6071 ft 208 kts 132°
2026-05-05 16:29 -19.69072 56.76134 6069 ft 208 kts 132°
2026-05-05 16:30 -19.70113 56.77187 6255 ft 211 kts 132°
2026-05-05 16:30 -19.71184 56.78271 6862 ft 214 kts 132°
2026-05-05 16:30 -19.72279 56.79381 7549 ft 214 kts 134°
2026-05-05 16:30 -19.73341 56.80455 7942 ft 214 kts 134°
2026-05-05 16:31 -19.74421 56.81548 8060 ft 215 kts 134°
2026-05-05 16:31 -19.75508 56.82647 8068 ft 217 kts 134°
2026-05-05 16:31 -19.76600 56.83750 8069 ft 216 kts 133°
2026-05-05 16:31 -19.77681 56.84846 8072 ft 215 kts 133°
2026-05-05 16:32 -19.78756 56.85935 8068 ft 213 kts 133°
2026-05-05 16:32 -19.79828 56.87023 8073 ft 213 kts 133°
2026-05-05 16:32 -19.80902 56.88114 8045 ft 215 kts 134°
2026-05-05 16:32 -19.81981 56.89205 7958 ft 214 kts 134°
2026-05-05 16:33 -19.83062 56.90300 7877 ft 213 kts 133°
2026-05-05 16:33 -19.84130 56.91382 7822 ft 211 kts 132°
2026-05-05 16:33 -19.85192 56.92460 7785 ft 211 kts 132°
2026-05-05 16:33 -19.86251 56.93536 7734 ft 210 kts 133°
2026-05-05 16:34 -19.87309 56.94609 7677 ft 210 kts 133°
2026-05-05 16:34 -19.88370 56.95689 7549 ft 213 kts 133°
2026-05-05 16:34 -19.89438 56.96771 7356 ft 212 kts 133°
2026-05-05 16:34 -19.90501 56.97853 7156 ft 213 kts 134°
2026-05-05 16:35 -19.91570 56.98937 6940 ft 212 kts 134°
2026-05-05 16:35 -19.92635 57.00017 6744 ft 210 kts 132°
2026-05-05 16:35 -19.93693 57.01091 6583 ft 210 kts 132°
2026-05-05 16:35 -19.94745 57.02161 6464 ft 209 kts 133°
2026-05-05 16:36 -19.95801 57.03237 6319 ft 210 kts 133°
2026-05-05 16:36 -19.96858 57.04312 6207 ft 210 kts 133°
2026-05-05 16:36 -19.97914 57.05385 6113 ft 210 kts 133°
2026-05-05 16:36 -19.98966 57.06456 6071 ft 210 kts 134°
2026-05-05 16:37 -20.00021 57.07527 6073 ft 209 kts 134°
2026-05-05 16:37 -20.01072 57.08598 6074 ft 210 kts 134°
2026-05-05 16:37 -20.02128 57.09670 6076 ft 209 kts 133°
2026-05-05 16:37 -20.03175 57.10735 6074 ft 208 kts 133°
2026-05-05 16:38 -20.04219 57.11799 6074 ft 208 kts 134°
2026-05-05 16:38 -20.05266 57.12867 6074 ft 209 kts 134°
2026-05-05 16:38 -20.06317 57.13936 6075 ft 209 kts 134°
2026-05-05 16:38 -20.07367 57.15003 6075 ft 208 kts 134°
2026-05-05 16:39 -20.08414 57.16072 6073 ft 209 kts 134°
2026-05-05 16:39 -20.09464 57.17141 6076 ft 209 kts 133°
2026-05-05 16:39 -20.10511 57.18208 6076 ft 209 kts 133°
2026-05-05 16:39 -20.11559 57.19276 6077 ft 208 kts 133°
2026-05-05 16:40 -20.12605 57.20343 6082 ft 208 kts 133°
2026-05-05 16:40 -20.13650 57.21410 6079 ft 209 kts 134°
2026-05-05 16:40 -20.14700 57.22481 6081 ft 209 kts 134°
2026-05-05 16:40 -20.15748 57.23550 6080 ft 209 kts 134°
2026-05-05 16:41 -20.16797 57.24619 6078 ft 209 kts 134°
2026-05-05 16:41 -20.17846 57.25688 6079 ft 208 kts 133°
2026-05-05 16:41 -20.18893 57.26758 6083 ft 209 kts 134°
2026-05-05 16:41 -20.19905 57.27862 6079 ft 208 kts 128°
2026-05-05 16:42 -20.20784 57.29085 6024 ft 208 kts 124°
2026-05-05 16:42 -20.21619 57.30340 5910 ft 208 kts 123°
2026-05-05 16:42 -20.22438 57.31578 5805 ft 207 kts 123°
2026-05-05 16:42 -20.23265 57.32829 5761 ft 206 kts 123°
2026-05-05 16:43 -20.24092 57.34078 5667 ft 207 kts 123°
2026-05-05 16:43 -20.24920 57.35324 5556 ft 205 kts 123°
2026-05-05 16:43 -20.25739 57.36555 5500 ft 199 kts 123°
2026-05-05 16:43 -20.26511 57.37714 5414 ft 184 kts 122°
2026-05-05 16:44 -20.27232 57.38793 5285 ft 174 kts 123°
2026-05-05 16:44 -20.27929 57.39842 5178 ft 173 kts 122°
2026-05-05 16:44 -20.28627 57.40881 5050 ft 172 kts 124°
2026-05-05 16:44 -20.29328 57.41914 4804 ft 172 kts 123°
2026-05-05 16:45 -20.30028 57.42942 4571 ft 171 kts 123°
2026-05-05 16:45 -20.30722 57.43968 4294 ft 170 kts 124°
2026-05-05 16:45 -20.31456 57.44931 4019 ft 166 kts 130°
2026-05-05 16:45 -20.32137 57.45902 3737 ft 162 kts 117°
2026-05-05 16:46 -20.32675 57.46938 3570 ft 157 kts 114°
2026-05-05 16:46 -20.33176 57.47944 3391 ft 150 kts 112°
2026-05-05 16:46 -20.33641 57.48922 3113 ft 146 kts 112°
2026-05-05 16:46 -20.34099 57.49867 3007 ft 142 kts 115°
2026-05-05 16:47 -20.34561 57.50797 3009 ft 142 kts 115°
2026-05-05 16:47 -20.35023 57.51722 3005 ft 141 kts 115°
2026-05-05 16:47 -20.35478 57.52650 3002 ft 142 kts 115°
2026-05-05 16:47 -20.35931 57.53587 3004 ft 143 kts 114°
2026-05-05 16:48 -20.36383 57.54530 3008 ft 143 kts 115°
2026-05-05 16:48 -20.36835 57.55473 2991 ft 143 kts 114°
2026-05-05 16:48 -20.37287 57.56414 2827 ft 141 kts 114°
2026-05-05 16:48 -20.37730 57.57338 2589 ft 139 kts 115°
2026-05-05 16:49 -20.38165 57.58243 2344 ft 136 kts 115°
2026-05-05 16:49 -20.38596 57.59139 2115 ft 136 kts 115°
2026-05-05 16:49 -20.39029 57.60038 1904 ft 136 kts 114°
2026-05-05 16:49 -20.39458 57.60934 1671 ft 135 kts 114°
2026-05-05 16:50 -20.39889 57.61831 1463 ft 137 kts 114°
2026-05-05 16:50 -20.40322 57.62732 1252 ft 136 kts 113°
2026-05-05 16:50 -20.40740 57.63640 1028 ft 141 kts 113°
2026-05-05 16:50 -20.41182 57.64569 864 ft 139 kts 117°
2026-05-05 16:51 -20.41632 57.65500 654 ft 144 kts 110°
2026-05-05 16:51 -20.42094 57.66431 426 ft 138 kts 116°
2026-05-05 16:51 -20.42522 57.67326 249 ft 132 kts 115°
2026-05-05 16:51 -20.42926 57.68157 162 ft 117 kts 118°
2026-05-05 16:52 -20.43202 57.68724 145 ft 45 kts 117°
2026-05-05 16:52 -20.43250 57.68823 142 ft 15 kts 117°
2026-05-05 16:52 -20.43352 57.69035 127 ft 40 kts 117°
2026-05-05 16:52 -20.43485 57.69310 119 ft 44 kts 117°
2026-05-05 16:53 -20.43628 57.69604 114 ft 43 kts 117°
2026-05-05 16:53 -20.43753 57.69741 111 ft 25 kts 174°
2026-05-05 16:53 -20.43852 57.69708 110 ft 6 kts 209°
2026-05-05 16:53 -20.43866 57.69698 110 ft 6 kts 220°
2026-05-05 16:54 -20.43866 57.69685 111 ft 3 kts 282°
2026-05-05 16:54 -20.43833 57.69623 112 ft 16 kts 304°
2026-05-05 16:54 -20.43758 57.69483 116 ft 27 kts 297°
2026-05-05 16:54 -20.43680 57.69318 119 ft 13 kts 297°
2026-05-05 16:55 -20.43615 57.69186 125 ft 26 kts 299°
2026-05-05 16:55 -20.43555 57.69063 126 ft 19 kts 297°
2026-05-05 16:55 -20.43477 57.68898 136 ft 30 kts 297°
2026-05-05 16:55 -20.43382 57.68701 143 ft 13 kts 297°
2026-05-05 16:56 -20.43337 57.68610 146 ft 15 kts 297°
2026-05-05 16:56 -20.43288 57.68509 149 ft 16 kts 297°
2026-05-05 16:56 -20.43236 57.68399 153 ft 17 kts 298°
2026-05-05 16:56 -20.43188 57.68301 156 ft 7 kts 296°
2026-05-05 16:57 -20.43162 57.68246 157 ft 10 kts 297°
2026-05-05 16:57 -20.43127 57.68164 160 ft 14 kts 282°
2026-05-05 16:57 -20.43154 57.68061 162 ft 16 kts 272°
2026-05-05 16:57 -20.43110 57.67948 165 ft 17 kts 296°
2026-05-05 16:58 -20.43072 57.67875 167 ft 9 kts 298°
2026-05-05 16:58 -20.43056 57.67807 169 ft 9 kts 257°
2026-05-05 16:58 -20.43089 57.67785 169 ft 7 kts 199°
2026-05-05 16:58 -20.43113 57.67776 169 ft 2 kts 205°
2026-05-05 16:59 -20.43119 57.67773 169 ft 0 kts 205°
2026-05-05 17:00 -20.43124 57.67769 169 ft 0 kts 208°